Location: Stara Lesna
(49.1528°N, 20.2911°E)
Time: 10:05:34
(UTC+02:00)

Meteor 2-20 - Pass Details

Date: 13 July 2020
Orbit: 940 x 958 km, 82.5° (Epoch: 05 August)

Event Time Altitude Azimuth Distance (km) Brightness Sun altitude
Rises 00:45:36 0° 349° (N) 3,642 9.0 -19.1°
Reaches altitude 10° 00:48:06 10° 349° (N) 2,695 8.0 -19.0°
Maximum altitude 00:54:17 86° 262° (W) 966 4.4 -19.0°
Enters shadow 00:57:21 32° 175° (S) 1,578 5.0 -19.0°
